Regional Weather Roundup
Issued by NWS

Home | Current Version | Previous Version | Text Only | Print | Product List | Glossary On
Versions: 1 2 3 4 5 6 7 8 9 10 11 12 13 14 15 16 17 18 19 20 21 22 23 24 25 26 27 28 29 30 31 32 33 34 35 36 37 38 39 40 41 42 43 44 45 46 47 48 49 50
000
ASUS44 KLUB 160410
RWRTX
WEST TEXAS WEATHER ROUNDUP
NATIONAL WEATHER SERVICE LUBBOCK TX
1100 PM CDT TUE APR 15 2014

NOTE: "FAIR" INDICATES FEW OR NO CLOUDS BELOW 12,000 FEET WITH NO
SIGNIFICANT WEATHER AND/OR OBSTRUCTIONS TO VISIBILITY.

TXZ004-006>008-010-012-014-016-OKZ002-160500-
TEXAS PANHANDLE/OKLAHOMA PANHANDLE

CITY           SKY/WX    TMP DP  RH WIND       PRES   REMARKS
AMARILLO       MOCLDY    55   7  14 S26G33    29.89S
BORGER         CLOUDY    58   8  13 S20G26    29.85F
CANADIAN       MOCLDY    57   9  14 S22G28    29.88S
DALHART        CLOUDY    57  10  15 S22       29.80F
DUMAS          CLOUDY    55  11  17 S20       29.83F
GUYMON         MOCLDY    56  13  18 S20G28    29.77F
HEREFORD       CLOUDY    53   9  17 S13       29.90S
PAMPA          CLOUDY    53   8  16 S21G28    29.89F
PERRYTON       MOCLDY    54  12  19 S21G28    29.84F
$$

TXZ026-029-035-045-048-160500-
SOUTHERN PANHANDLE/SOUTH PLAINS/ROLLING PLAINS

CITY           SKY/WX    TMP DP  RH WIND       PRES   REMARKS
CHILDRESS      MOCLDY    52  10  18 SE12      29.97F
SEMINOLE       PTCLDY    50   7  17 S7        29.99F
LUBBOCK        CLOUDY    55   8  15 S17       29.96F
PLAINVIEW      CLOUDY    52   9  17 S15       29.92F
SNYDER         CLEAR     53   8  16 SE12      30.01F
$$

TXZ052-054-060>062-072-078-127-140-154-169-160500-
PERMIAN BASIN/CONCHO VALLEY/BIG COUNTRY/EDWARDS PLATEAU

CITY           SKY/WX    TMP DP  RH WIND       PRES   REMARKS
ABILENE        CLEAR     52  16  24 SE13      30.04F
BIG SPRING     CLEAR     56  12  17 SE15      30.03F
BRADY            N/A     50  19  29 SE8       30.09F
BROWNWOOD      CLEAR     50  25  37 SE9       30.09F
JUNCTION       CLEAR     53  21  28 S7        30.10S
MIDLAND        PTCLDY    54  10  17 S15       30.00F
ODESSA         CLEAR     56   6  13 S17       30.01S
SAN ANGELO     CLEAR     48  13  24 S7        30.05F
SONORA         CLEAR     54  18  24 S9        30.09S
SWEETWATER     CLEAR     51  12  20 S10       30.05S
WINK           PTCLDY    58   7  13 SE15      29.97S
$$

TXZ055-058-074-075-080-082-160500-
FAR WEST/SOUTHWEST MOUNTAINS/TRANS PECOS

CITY           SKY/WX    TMP DP  RH WIND       PRES   REMARKS
ALPINE         CLEAR     53  12  19 S9        30.08F
DRYDEN           N/A     53  13  20 NE5       30.04S
EL PASO        MOCLDY    62   4  10 CALM      29.94S
FORT STOCKTON  PTCLDY    55  12  18 SE18G28   30.00S
GUADALUPE PASS MOCLDY    57  -3   8 S9        30.04S
MARFA          CLEAR     46   5  18 SE5       30.06F
PECOS          PTCLDY    58  14  17 E15       29.95F
PRESIDIO       FAIR      65  14  13 NE8       29.94F
$$

TXZ014-016-019-021>030-083-160500
TEXAS TECH WEST TEXAS MESONET/TEXAS PANHANDLE/NORTHERN SOUTH PLAINS

CITY           SKY/WX    TMP DP  RH WIND       PRES   REMARKS
ABERNATHY 5ENE   N/A     51   9  18 S14       29.95F
AMARILLO 9NNE    N/A     56  10  16 S24       29.84F
AMARILLO 7SSE    N/A     53   9  17 S18       29.90F
AMHERST 1NE      N/A     53   5  14 S15       29.93F
BOOTLEG 11WNW    N/A     53   7  16 S23       29.89F
CANADIAN 6E      N/A     54  13  19 SE15      29.88S
CAPROCK CYN SP   N/A     52   9  17 S12       29.94F
CHILDRESS 2NNE   N/A     53  11  18 SE14      29.96F
CLARENDON 2WSW   N/A     55   7  14 S16       29.93S
CLAUDE 12SW      N/A     55   8  15 S14       29.91F
DIMMITT 2NE      N/A     50  11  21 S18       29.91S
FLOYDADA 2NNE    N/A     51   5  15 S15       29.95F
FRIONA 2NE       N/A     53   9  17 S18       29.90S
GOODLETT 3W      N/A     53  12  19 SE13      29.97F
HART 3N          N/A     51  11  19 S14       29.91F
HEREFORD 2NW     N/A     53   8  17 S15       29.89S
MCLEAN 1E        N/A     52  10  18 S15       29.91F
MEMPHIS 1NE      N/A     54   7  15 SE7       29.95S
MULESHOE 2SSW    N/A     54   4  13 S17       29.91F
OLTON 6S         N/A     51   9  18 S17       29.92F
PALO DURO SP     N/A     54   8  15 S13       29.91F
PAMPA 2E         N/A     53   9  17 SE18      29.89F
PLAINVIEW 1S     N/A     53  10  18 S15       29.93F
TULIA 2ENE       N/A     52  10  18 S16       29.91F
TURKEY 2WSW      N/A     50   9  18 SE10      29.94F
UMBARGER 3NNE    N/A     52  10  18 S20       29.88F
$$

TXZ033>036-039>041-045>048-160500
TEXAS TECH WEST TEXAS MESONET/SOUTH PLAINS

CITY           SKY/WX    TMP DP  RH WIND       PRES   REMARKS
AIKEN 3WSW       N/A     49  13  23 S14       29.94F
ANDREWS 2NE      N/A     52   3  13 S10       30.00S
ANTON 6SSW       N/A     52   6  16 S16       29.95F
BROWNFIELD 2S    N/A     46   7  20 S9        29.97F
DENVR CTY 7WNW   N/A     50   3  14 S13       29.96F
GAIL 2ESE        N/A     52  10  19 S10       29.98F
LAMESA 2SE       N/A     49  10  21 S10       29.99F
LEVELLAND 4S     N/A     50   4  15 S13       29.95F
LUBBOCK 3WNW     N/A     56   7  14 S17       29.96F
MORTON 1ENE      N/A     50   4  15 S13       29.93F
ODONNELL 1N      N/A     51   7  16 S13       29.98F
PLAINS 3N        N/A     53   2  12 S17       29.96F
RALLS 1SE        N/A     49   8  18 S13       29.98F
REESE CENTER     N/A     52   6  15 S16       29.95F
SEAGRAVES 1SW    N/A     52   5  14 S15       29.97F
SEMINOLE 2NNE    N/A     50   5  16 S12       29.98S
SLATON 2NE       N/A     48   8  19 S10       29.97F
SNYDER 3E        N/A     52   9  17 S14       30.00S
SUNDOWN 8SW      N/A     51   5  16 S14       29.95F
TAHOKA 3NNE      N/A     47   8  21 S10       29.97F
WOLFFORTH 6SSW   N/A     52   7  16 S13       29.97S
$$

TXZ031-032-036>038-042>044-160500-
TEXAS TECH WEST TEXAS MESONET/ROLLING PLAINS

CITY           SKY/WX    TMP DP  RH WIND       PRES   REMARKS
ASPERMONT 3NE    N/A     54  10  17 SE10      30.00F
FLUVANNA 3WNW    N/A     52   9  17 S13       29.99F
GRAHAM 5SSW      N/A     56   7  14 S21       29.97F
GUTHRIE 10WSW    N/A     51  10  19 S9        29.98S
HASKELL 1NW      N/A     53  13  20 SE10      30.02S
JAYTON 1SSE      N/A     52   9  18 SE8       29.99F
KNOX CITY 3NW    N/A     52  11  19 SE13      30.01S
LK A HENRY 1NW   N/A     55  13  18 S8        29.98F
NORTHFIELD 1S    N/A     53  10  17 S9        29.95F
ODELL 4ENE       N/A     52  14  21 SE13      30.01F
PADUCAH 10SW     N/A     51  10  19 S12       29.97F
POST 1NE         N/A     55   8  15 S10       29.97F
RRING SPRGS 3N   N/A     49  10  20 S12       29.95F
SEYMOUR 3NW      N/A     54  18  24 SE13      30.02S
SPUR 1W          N/A     47   7  19 S7        29.97F
WEINERT 2NNE     N/A     53  14  21 SE12      30.02S
WHITE RVR 6NE    N/A     51   7  17 S9        29.97F
$$

TXZ052-054-060>062-072-078-127-140-154-169-160500-
TEXAS TECH WEST TEXAS MESONET/PERMIAN BASIN/
CONCHO VALLEY/BIG COUNTRY/EDWARDS PLATEAU

CITY           SKY/WX    TMP DP  RH WIND       PRES   REMARKS
COYANOSA 2N      N/A     57  10  15 SE15      29.98F
JUNCTION 1SSW    N/A     54  21  27 S8        30.10S
MERTZON 3NNE     N/A     46  15  29 S5        30.06F
SAN ANGELO 7NW   N/A     51  11  20 SE5       30.05S
STRLNG CT 4WSW   N/A     53  13  20 S10       30.05S
ST LAWRNCE 5SW   N/A     49   8  19 SE14      30.03F
WALL 1E          N/A     48  10  21 SE9       30.05F
$$

TXZ055-058-074-075-080-082-160500-
TEXAS TECH WEST TEXAS MESONET/FAR WEST/SOUTHWEST MOUNTAINS/TRANS PECOS

CITY           SKY/WX    TMP DP  RH WIND       PRES   REMARKS
PRSMN GAP BBNP   N/A     58  12  16 N17       30.02R
$$



USA.gov is the U.S. government's official web portal to all federal, state and local government web resources and services.